[[{"header":{"parameterUnit":"m.s-1","parameterCategory":1,"la1":30.2991,"la2":30.254,"lo1":-89.0895,"lo2":-89.0444,"dy":0.0017,"dx":0.0017,"nx":28,"ny":28,"refTime":"2024-06-30T21:00:00:Z","depth":0,"parameterNumber":2,"parameterNumberName":"U-component_of_WINDS"},"data":[0,0,0,0,0,0,0,0,0,0,0,0,0,0,0,0,0,0,0,0,0,0,0,0,0,0,0,0,0,0,0,0,0,0,0,0,0,0,0,0,0,0,0,0,0,0,0,0,0,0,0,0,0,0,0,0,0,0,2.0772,2.0773,0,2.092,2.0922,2.0924,2.0944,2.0942,2.0941,2.0939,2.1093,2.1099,2.1104,0,0,0,0,0,0,0,0,0,0,0,0,0,2.0507,2.0511,2.0771,2.0773,2.0775,2.092,2.0922,2.0924,2.0944,2.0942,2.094,2.0939,2.1091,2.1098,2.1104,0,0,0,0,0,0,0,0,0,0,0,0,0,2.0635,2.0513,2.0771,2.0802,2.0807,2.092,2.0922,2.0925,2.0944,2.0942,2.094,2.0938,2.1089,2.1097,2.1105,2.1198,0,0,2.113,2.1134,0,0,0,0,0,0,0,0,2.0628,2.0645,2.0796,2.0801,2.0806,2.0911,2.0885,2.1016,2.0945,2.0892,2.0939,2.0937,2.1035,2.1047,2.108,2.1205,2.1211,2.1131,2.1136,2.1139,2.1141,0,0,0,0,0,0,0,2.0619,2.0639,2.083,2.0798,2.0804,2.081,2.0826,2.091,2.0973,2.0897,2.0898,2.0916,2.1037,2.1072,2.1083,2.1214,2.1131,2.1138,2.1143,2.1146,2.1424,2.1426,0,0,0,0,0,0,2.0604,2.0631,2.0826,2.0835,2.071,2.0816,2.0834,2.0879,2.0973,2.0985,2.0917,2.0916,2.1059,2.1074,2.1089,2.1204,2.1139,2.1147,2.1151,2.1422,2.1425,2.1427,0,0,0,0,0,0,2.0598,2.0621,2.082,2.0734,2.0759,2.0823,2.0874,2.0884,2.0918,2.0988,2.1,2.0941,2.1058,2.1077,2.1171,2.1209,2.115,2.1158,2.1419,2.1423,2.1426,2.1434,0,0,0,0,0,0,2.0591,2.0619,2.0654,2.0734,2.0764,2.0898,2.0876,2.0888,2.0932,2.0932,2.1014,2.1025,2.1058,2.1158,2.1179,2.122,2.1164,2.1415,2.142,2.1425,2.1431,2.1438,2.1444,0,0,0,0,0,2.0581,2.0651,2.0656,2.0679,2.0809,2.09,2.0917,2.0953,2.0935,2.0972,2.1017,2.1023,2.1202,2.1168,2.1191,2.1235,2.1413,2.1419,2.1424,2.1428,2.1436,2.1444,0,0,0,0,0,0,2.0573,2.0662,2.0668,2.0766,2.0825,2.0904,2.095,2.0961,2.1027,2.1024,2.1066,2.1084,2.1176,2.1215,2.1175,2.133,2.1306,2.1317,2.1301,2.131,2.1316,2.1305,2.1171,0,0,0,0,0,2.0583,2.0649,2.0723,2.0802,2.0832,2.0886,2.0927,2.0949,2.1013,2.1038,2.109,2.1152,2.1223,2.1269,2.1337,2.1437,2.1455,2.1479,2.1485,2.149,2.1499,2.1555,2.1567,2.1446,2.1446,2.1446,0,0,2.0603,2.066,2.0699,2.0802,2.0851,2.0919,2.0907,2.098,2.1031,2.105,2.1141,2.1181,2.1254,2.1351,2.1396,2.1386,2.1536,2.1497,2.1501,2.1507,2.1562,2.1574,2.1584,2.145,2.1449,2.1449,0,0,2.0676,2.0725,2.0796,2.0846,2.092,2.0956,2.0973,2.1051,2.1078,2.117,2.1186,2.1248,2.1369,2.142,2.1462,2.1555,2.1564,2.1577,2.1611,2.1665,2.1675,2.1684,2.1718,2.1729,2.1585,2.1585,2.1585,0,2.0692,2.0795,2.0832,2.0904,2.095,2.097,2.1043,2.1089,2.1182,2.1214,2.1201,2.1353,2.1403,2.1513,2.1536,2.1569,2.1591,2.1567,2.1671,2.168,2.1688,2.1721,2.1734,2.1586,2.1586,2.1586,2.1586,0,2.0812,2.0883,2.0932,2.1021,2.1072,2.1145,2.1193,2.124,2.1259,2.1296,2.1391,2.1452,2.1534,2.1562,2.158,2.1675,2.1666,2.1662,2.1639,2.17,2.1732,2.1745,2.1588,2.1587,2.1587,2.1587,0,0,2.0882,2.0991,2.1009,2.105,2.1134,2.1191,2.1265,2.1345,2.1385,2.1449,2.1513,2.1615,2.1612,2.1659,2.1684,2.1732,2.1804,2.1722,2.1724,2.1735,2.1912,2.1915,2.1929,2.181,2.1812,2.1814,2.1906,0,2.0964,2.1096,2.1132,2.1244,2.1311,2.1332,2.1397,2.1456,2.1494,2.1557,2.1599,2.1671,2.1661,2.169,2.1738,2.1784,2.184,2.1778,2.187,2.1873,2.1851,2.1945,2.1948,2.2032,2.1919,2.1921,2.1923,0,2.1077,2.1143,2.1262,2.1339,2.1369,2.1426,2.1503,2.1563,2.1631,2.1655,2.1709,2.173,2.1809,2.1782,2.1893,2.185,2.189,2.1919,2.1923,2.1933,2.1901,2.1958,2.206,2.2072,2.1942,2.1941,2.1939,0,2.1117,2.1236,2.1323,2.1357,2.1449,2.1489,2.1529,2.1595,2.1642,2.1709,2.174,2.1816,2.1858,2.1917,2.1958,2.1934,2.2065,2.2042,2.2088,2.2087,2.2114,2.2112,2.2224,2.214,2.214,2.214,2.2139,0,2.1205,2.1276,2.1342,2.1395,2.1477,2.1518,2.1598,2.1639,2.1698,2.1761,2.1784,2.1842,2.1893,2.1959,2.1992,2.2079,2.2098,2.212,2.2128,2.2118,2.2115,2.2144,2.2139,2.2143,2.2142,2.2142,2.2141,0,2.1262,2.1309,2.1405,2.1484,2.1506,2.1563,2.1631,2.1684,2.1723,2.1802,2.1823,2.1884,2.1962,2.201,2.2109,2.2131,2.2228,2.2233,2.2204,2.2208,2.2252,2.2247,2.2386,2.2407,2.2309,2.231,2.2311,0,2.1315,2.1371,2.1456,2.15,2.154,2.161,2.1657,2.1701,2.1749,2.1832,2.1876,2.1955,2.2022,2.2146,2.22,2.2277,2.2284,2.2328,2.2296,2.2285,2.2286,2.2282,2.2288,2.2333,2.2334,2.2335,2.2335,0,2.1404,2.1424,2.1491,2.1567,2.1623,2.1685,2.1747,2.1781,2.1835,2.1889,2.1969,2.2021,2.2123,2.2202,2.2283,2.2326,2.234,2.2345,2.236,2.235,2.2331,2.2342,2.2219,2.2342,2.2341,2.234,2.234,2.234,2.1461,2.1512,2.158,2.1655,2.1706,2.1763,2.1817,2.1863,2.1931,2.2017,2.2039,2.2123,2.2192,2.2303,2.2347,2.2415,2.2408,2.2429,2.2435,2.2439,2.2441,2.2321,2.243,2.243,2.243,2.2429,2.2429,0,2.1551,2.1596,2.1665,2.175,2.1809,2.1817,2.1886,2.1935,2.2009,2.2072,2.2136,2.223,2.2307,2.2368,2.2448,2.249,2.2499,2.251,2.2507,2.2517,2.2442,2.2421,2.2501,2.2501,2.2501,2.2501,2.2501,2.2501,2.1605,2.1692,2.1721,2.1834,2.1879,2.1962,2.2001,2.2054,2.2104,2.2207,2.2271,2.231,2.2373,2.2458,2.253,2.2546,2.2574,2.2584,2.2601,2.253,2.2522,2.2514,2.2495,2.259,2.259,2.267,2.2671,2.2671]},{"header":{"parameterUnit":"m.s-1","parameterCategory":1,"la1":30.2991,"la2":30.254,"lo1":-89.0895,"lo2":-89.0444,"dy":0.0017,"dx":0.0017,"nx":28,"ny":28,"refTime":"2024-06-30T21:00:00:Z","depth":0,"parameterNumber":3,"parameterNumberName":"V-component_of_WINDS"},"data":[0,0,0,0,0,0,0,0,0,0,0,0,0,0,0,0,0,0,0,0,0,0,0,0,0,0,0,0,0,0,0,0,0,0,0,0,0,0,0,0,0,0,0,0,0,0,0,0,0,0,0,0,0,0,0,0,0,0,0.5987,0.5987,0,0.601,0.601,0.601,0.5985,0.5984,0.5983,0.5982,0.6004,0.6005,0.6006,0,0,0,0,0,0,0,0,0,0,0,0,0,0.5918,0.592,0.5987,0.5987,0.5987,0.601,0.601,0.6011,0.5985,0.5984,0.5983,0.5982,0.6003,0.6005,0.6007,0,0,0,0,0,0,0,0,0,0,0,0,0,0.5945,0.592,0.5987,0.5977,0.5977,0.601,0.601,0.6011,0.5986,0.5984,0.5983,0.5981,0.6003,0.6005,0.6007,0.6049,0,0,0.6014,0.6014,0,0,0,0,0,0,0,0,0.5944,0.5948,0.5978,0.5978,0.5978,0.5993,0.5994,0.6023,0.5986,0.5982,0.5982,0.5981,0.6001,0.6003,0.6011,0.605,0.6051,0.6014,0.6015,0.6016,0.6017,0,0,0,0,0,0,0,0.5942,0.5947,0.5996,0.5979,0.5978,0.5971,0.5974,0.5999,0.5999,0.5982,0.5981,0.5984,0.6001,0.6009,0.6011,0.6051,0.6014,0.6016,0.6017,0.6018,0.6128,0.6129,0,0,0,0,0,0,0.5941,0.5945,0.5995,0.5996,0.5957,0.5974,0.5976,0.599,0.5999,0.5999,0.5985,0.5983,0.6006,0.6009,0.6012,0.6063,0.6016,0.6018,0.6019,0.6126,0.6128,0.613,0,0,0,0,0,0,0.594,0.5946,0.5994,0.597,0.5976,0.5977,0.5992,0.5991,0.5999,0.6001,0.6001,0.5994,0.6005,0.6009,0.604,0.6063,0.6019,0.6021,0.6124,0.6127,0.6129,0.6165,0,0,0,0,0,0,0.5938,0.5946,0.5962,0.5971,0.5977,0.6023,0.5993,0.5992,0.6003,0.6,0.6009,0.6009,0.6004,0.6037,0.6043,0.6065,0.6023,0.6122,0.6125,0.6128,0.6162,0.6168,0.6174,0,0,0,0,0,0.5936,0.5971,0.5963,0.5969,0.5998,0.6024,0.6028,0.6022,0.6005,0.6022,0.6023,0.6009,0.606,0.6041,0.6047,0.607,0.6121,0.6124,0.6128,0.6159,0.6167,0.6174,0,0,0,0,0,0,0.5963,0.5972,0.5963,0.6002,0.6013,0.602,0.6041,0.6031,0.6046,0.6042,0.6033,0.6035,0.607,0.6073,0.6052,0.6112,0.6087,0.6092,0.6109,0.6117,0.6123,0.6121,0.6025,0,0,0,0,0,0.5974,0.5996,0.6001,0.6035,0.6041,0.604,0.6051,0.6046,0.6056,0.606,0.6064,0.6074,0.6092,0.6104,0.6121,0.6162,0.6164,0.6181,0.6187,0.6192,0.6197,0.6219,0.6227,0.6142,0.6142,0.6141,0,0,0.5996,0.6003,0.6017,0.6041,0.6048,0.6071,0.6044,0.6068,0.6084,0.6064,0.6095,0.6098,0.6108,0.6145,0.6161,0.6149,0.6221,0.6197,0.6201,0.6203,0.6224,0.6232,0.6239,0.6144,0.6144,0.6143,0,0,0.6048,0.6056,0.6085,0.6094,0.6106,0.6106,0.6113,0.6122,0.6123,0.6154,0.614,0.6158,0.619,0.6198,0.6207,0.6263,0.6251,0.6268,0.63,0.6323,0.6329,0.6335,0.6356,0.6364,0.6273,0.6273,0.6273,0,0.6074,0.6107,0.6101,0.6127,0.6138,0.6122,0.6151,0.616,0.6176,0.6184,0.617,0.621,0.6216,0.6255,0.6269,0.6276,0.6284,0.6268,0.6329,0.6335,0.634,0.636,0.6368,0.6275,0.6275,0.6275,0.6274,0,0.6139,0.6162,0.6184,0.6203,0.6216,0.6244,0.6241,0.6255,0.6249,0.625,0.6282,0.6288,0.6307,0.6315,0.6309,0.6354,0.6346,0.6331,0.6305,0.6351,0.6369,0.6377,0.6278,0.6277,0.6277,0.6276,0,0,0.6208,0.6224,0.6232,0.6241,0.6254,0.6272,0.6298,0.6318,0.633,0.6342,0.6365,0.6392,0.6379,0.6388,0.6383,0.6402,0.6447,0.6384,0.6384,0.6397,0.6498,0.651,0.6519,0.6439,0.644,0.6441,0.6498,0,0.6261,0.6309,0.6305,0.635,0.6372,0.6357,0.638,0.6391,0.6392,0.641,0.6411,0.6432,0.6412,0.6418,0.6436,0.6438,0.6468,0.6434,0.646,0.6461,0.6459,0.6528,0.6541,0.6594,0.6505,0.6506,0.6507,0,0.6329,0.6346,0.6394,0.6405,0.6414,0.6435,0.6453,0.647,0.6482,0.6481,0.6493,0.6484,0.651,0.6485,0.6521,0.6498,0.6509,0.6511,0.6513,0.6516,0.6487,0.6534,0.661,0.6618,0.6518,0.6517,0.6516,0,0.6377,0.641,0.6444,0.6451,0.6465,0.648,0.6486,0.6496,0.6508,0.6523,0.6531,0.6549,0.6559,0.6572,0.6568,0.655,0.6606,0.658,0.6607,0.6607,0.662,0.6619,0.67,0.6625,0.6625,0.6625,0.6625,0,0.6437,0.6467,0.6466,0.6486,0.6519,0.6514,0.6547,0.6551,0.656,0.6581,0.6568,0.6587,0.6581,0.66,0.6597,0.6628,0.6632,0.6633,0.6632,0.6634,0.6635,0.6641,0.6638,0.6627,0.6627,0.6626,0.6626,0,0.6495,0.6495,0.6531,0.6541,0.6544,0.6569,0.6577,0.6596,0.6597,0.6623,0.6629,0.663,0.6652,0.6649,0.6673,0.6671,0.6711,0.6705,0.6707,0.6706,0.6734,0.6732,0.6822,0.6834,0.6751,0.6752,0.6753,0,0.6534,0.6557,0.657,0.6584,0.6591,0.6613,0.6626,0.6621,0.6635,0.665,0.6668,0.6689,0.6706,0.6741,0.6744,0.6762,0.6757,0.6787,0.676,0.6762,0.6758,0.6758,0.676,0.6793,0.6794,0.6795,0.6795,0,0.6602,0.6602,0.6621,0.6642,0.6658,0.6673,0.6687,0.6698,0.6695,0.6711,0.6734,0.6747,0.6773,0.6794,0.6812,0.6817,0.6806,0.6804,0.6812,0.6815,0.6816,0.6817,0.6723,0.6802,0.6802,0.6801,0.6801,0.68,0.6653,0.6673,0.6686,0.6708,0.6719,0.6732,0.6751,0.6755,0.6775,0.6796,0.6792,0.6818,0.6829,0.6852,0.6859,0.6879,0.6868,0.6878,0.6881,0.6884,0.6888,0.6812,0.6882,0.6882,0.6882,0.6881,0.6881,0,0.6721,0.6729,0.675,0.6771,0.6789,0.6778,0.6793,0.6808,0.6832,0.6844,0.6861,0.6888,0.6908,0.6913,0.6933,0.6948,0.6943,0.6953,0.6952,0.6954,0.6896,0.6888,0.6957,0.6957,0.6957,0.6957,0.6957,0.6957,0.6759,0.6794,0.6795,0.6834,0.6841,0.6868,0.6878,0.689,0.69,0.6931,0.6948,0.6952,0.6961,0.6981,0.7,0.7,0.7008,0.702,0.7019,0.6965,0.6958,0.6951,0.6943,0.7022,0.7022,0.7075,0.7076,0.7076]}]]